Zurück zum Katalog

COSMOS 2354

AktivMilitärPO
NORAD 25365·PAYLOAD·🇷🇺 Russia

Gestartet Jun 15, 1998 von Plesetsk Cosmodrome

Loading…

Nächste Überflüge (nächste 24 Stunden)

TLE

AktuellSource: Space-Track

Epoche: Sep 14, 2026, 13:14 UTC

1 25365U 98036C   26257.55194409  .00000010  00000-0 -11473-4 0  9998
2 25365  82.5805 294.4849 0354015  49.4599 117.4491 12.20879256258979

Verfolge COSMOS 2354 in Echtzeit mit AllMySat

Download on the App Store